Weather History for Roseau, MN

Change the Weather History Date:

Thursday, May 1, 2014

  Actual Average Record
Temperature  
Mean Temperature 46 °F -  
Max Temperature 55 °F 56 °F 83 °F (1952)
Min Temperature 37 °F 30 °F 16 °F (1966)
Degree Days  
Heating Degree Days 19    
Moisture  
Dew Point 35 °F    
Average Humidity 68    
Maximum Humidity 87    
Minimum Humidity 44    
Precipitation  
Precipitation 0.00 in - - ()
Sea Level Pressure  
Sea Level Pressure 29.86 in    
Wind  
Wind Speed 11 mph (NNW)    
Max Wind Speed 18 mph    
Max Gust Speed 24 mph    
Visibility 10 miles    
Events      
Averages and records for this station are not official NWS values.
T = Trace of Precipitation, MM = Missing Value Source: NWS Daily Summary

Daily Weather History Graph

Daily Weather History Graph

Search for Another Location

Airport:

Trip Planner

Search our weather history database for the weather conditions in past years. The results will help you decide how hot, cold, wet, or windy it might be!

Date:

Astronomy

May. 01, 2014 Rise Set
Actual Time 6:02 AM CDT 8:38 PM CDT
Civil Twilight 5:26 AM CDT 9:14 PM CDT
Nautical Twilight 4:41 AM CDT 9:59 PM CDT
Astronomical Twilight 3:49 AM CDT 10:52 PM CDT
Moon 7:45 AM CDT (5/1) 11:17 PM CDT (5/1)
Length of Visible Light 15h 47m
Length of Day
14h 36m
Waxing Crescent, 7% of the Moon is Illuminated
May 1
Waxing Crescent
May 6
First Quarter
May 14
Full
May 21
Last Quarter
May 28
New

Hourly Weather History & Observations

Time (CDT) Temp. Windchill Dew Point Humidity Pressure Visibility Wind Dir Wind Speed Gust Speed Precip Events Conditions
12:15 AM 39.2 °F 31.2 °F 33.8 °F 81% 29.95 in 10.0 mi North 13.8 mph - N/A   Light Drizzle
12:34 AM 39.2 °F 32.0 °F 33.8 °F 81% 29.94 in 10.0 mi North 11.5 mph - N/A   Light Drizzle
12:54 AM 39.2 °F 32.0 °F 33.8 °F 81% 29.94 in 10.0 mi North 11.5 mph - N/A   Mostly Cloudy
1:14 AM 39.2 °F 32.0 °F 33.8 °F 81% 29.94 in 10.0 mi North 11.5 mph 17.3 mph N/A   Overcast
1:34 AM 39.2 °F 31.6 °F 33.8 °F 81% 29.94 in 10.0 mi North 12.7 mph - N/A   Overcast
1:54 AM 37.4 °F 29.3 °F 33.8 °F 87% 29.93 in 10.0 mi North 12.7 mph - N/A   Overcast
2:14 AM 37.4 °F 29.3 °F 33.8 °F 87% 29.93 in 10.0 mi North 12.7 mph - N/A   Overcast
2:34 AM 37.4 °F 30.3 °F 33.8 °F 87% 29.92 in 10.0 mi North 10.4 mph - N/A   Overcast
3:14 AM 39.2 °F 31.6 °F 33.8 °F 81% 29.92 in 10.0 mi North 12.7 mph 17.3 mph N/A   Overcast
3:34 AM 39.2 °F 32.0 °F 33.8 °F 81% 29.92 in 10.0 mi North 11.5 mph - N/A   Overcast
3:55 AM 39.2 °F 31.6 °F 33.8 °F 81% 29.91 in 10.0 mi North 12.7 mph - N/A   Overcast
4:14 AM 37.4 °F 30.3 °F 33.8 °F 87% 29.91 in 10.0 mi North 10.4 mph - N/A   Overcast
4:34 AM 37.4 °F 30.3 °F 33.8 °F 87% 29.90 in 10.0 mi North 10.4 mph - N/A   Overcast
4:55 AM 37.4 °F 29.8 °F 33.8 °F 87% 29.90 in 10.0 mi NNW 11.5 mph - N/A   Overcast
5:14 AM 37.4 °F 29.3 °F 33.8 °F 87% 29.90 in 10.0 mi North 12.7 mph - N/A   Overcast
5:34 AM 37.4 °F 29.8 °F 33.8 °F 87% 29.90 in 10.0 mi NNW 11.5 mph - N/A   Overcast
5:55 AM 37.4 °F 29.3 °F 33.8 °F 87% 29.90 in 10.0 mi NNW 12.7 mph - N/A   Overcast
6:14 AM 37.4 °F 29.3 °F 33.8 °F 87% 29.90 in 10.0 mi NNW 12.7 mph - N/A   Overcast
6:35 AM 37.4 °F 30.8 °F 32.0 °F 81% 29.91 in 10.0 mi NNW 9.2 mph - N/A   Overcast
7:14 AM 37.4 °F 30.8 °F 33.8 °F 87% 29.91 in 10.0 mi NNW 9.2 mph - N/A   Overcast
7:35 AM 37.4 °F 30.8 °F 33.8 °F 87% 29.91 in 10.0 mi NNW 9.2 mph - N/A   Overcast
7:54 AM 37.4 °F 29.8 °F 33.8 °F 87% 29.91 in 10.0 mi NNW 11.5 mph - N/A   Overcast
8:14 AM 39.2 °F 32.5 °F 33.8 °F 81% 29.91 in 10.0 mi North 10.4 mph - N/A   Overcast
8:34 AM 39.2 °F 31.6 °F 33.8 °F 81% 29.91 in 10.0 mi NNW 12.7 mph - N/A   Overcast
8:54 AM 39.2 °F 32.5 °F 33.8 °F 81% 29.91 in 10.0 mi NNW 10.4 mph - N/A   Overcast
9:15 AM 39.2 °F 33.0 °F 33.8 °F 81% 29.91 in 10.0 mi NNW 9.2 mph - N/A   Overcast
10:14 AM 41.0 °F 33.5 °F 33.8 °F 76% 29.90 in 10.0 mi NNW 13.8 mph - N/A   Scattered Clouds
10:34 AM 42.8 °F 35.4 °F 35.6 °F 76% 29.90 in 10.0 mi NNW 15.0 mph - N/A   Scattered Clouds
10:54 AM 44.6 °F 37.8 °F 35.6 °F 71% 29.90 in 10.0 mi North 15.0 mph 21.9 mph N/A   Clear
11:14 AM 44.6 °F 37.8 °F 35.6 °F 71% 29.89 in 10.0 mi NNW 15.0 mph - N/A   Clear
11:34 AM 46.4 °F 40.7 °F 35.6 °F 66% 29.89 in 10.0 mi NNW 12.7 mph 19.6 mph N/A   Clear
11:54 AM 48.2 °F - 35.6 °F 62% 29.89 in 10.0 mi NNW 18.4 mph 24.2 mph N/A   Clear
12:14 PM 48.2 °F - 33.8 °F 58% 29.88 in 10.0 mi North 17.3 mph 21.9 mph N/A   Clear
12:34 PM 48.2 °F - 33.8 °F 58% 29.88 in 10.0 mi North 15.0 mph 20.7 mph N/A   Clear
12:54 PM 48.2 °F - 35.6 °F 62% 29.88 in 10.0 mi NNW 15.0 mph 20.7 mph N/A   Scattered Clouds
1:14 PM 50.0 °F - 35.6 °F 58% 29.87 in 10.0 mi NNW 15.0 mph 23.0 mph N/A   Scattered Clouds
1:34 PM 51.8 °F - 35.6 °F 54% 29.86 in 10.0 mi NNW 13.8 mph 18.4 mph N/A   Scattered Clouds
1:54 PM 51.8 °F - 35.6 °F 54% 29.86 in 10.0 mi NNW 11.5 mph 17.3 mph N/A   Scattered Clouds
2:14 PM 53.6 °F - 33.8 °F 47% 29.86 in 10.0 mi North 15.0 mph 20.7 mph N/A   Clear
2:34 PM 53.6 °F - 33.8 °F 47% 29.85 in 10.0 mi North 13.8 mph 18.4 mph N/A   Clear
2:54 PM 53.6 °F - 35.6 °F 51% 29.86 in 10.0 mi NNW 13.8 mph - N/A   Scattered Clouds
3:14 PM 51.8 °F - 35.6 °F 54% 29.86 in 10.0 mi NNW 16.1 mph 19.6 mph N/A   Clear
3:34 PM 53.6 °F - 35.6 °F 51% 29.86 in 10.0 mi NNW 13.8 mph 19.6 mph N/A   Clear
4:14 PM 53.6 °F - 35.6 °F 51% 29.85 in 10.0 mi NNW 15.0 mph 19.6 mph N/A   Scattered Clouds
4:34 PM 53.6 °F - 35.6 °F 51% 29.84 in 10.0 mi NNW 9.2 mph 16.1 mph N/A   Scattered Clouds
4:54 PM 53.6 °F - 35.6 °F 51% 29.84 in 10.0 mi North 11.5 mph - N/A   Scattered Clouds
5:14 PM 55.4 °F - 37.4 °F 51% 29.83 in 10.0 mi North 12.7 mph 17.3 mph N/A   Clear
5:34 PM 55.4 °F - 37.4 °F 51% 29.84 in 10.0 mi North 12.7 mph - N/A   Clear
5:54 PM 55.4 °F - 37.4 °F 51% 29.83 in 10.0 mi North 11.5 mph - N/A   Scattered Clouds
6:14 PM 55.4 °F - 37.4 °F 51% 29.82 in 10.0 mi North 6.9 mph - N/A   Scattered Clouds
6:34 PM 55.4 °F - 37.4 °F 51% 29.82 in 10.0 mi NNW 5.8 mph 9.2 mph N/A   Clear
6:54 PM 55.4 °F - 35.6 °F 47% 29.81 in 10.0 mi NW 5.8 mph - N/A   Scattered Clouds
7:14 PM 55.4 °F - 33.8 °F 44% 29.81 in 10.0 mi WNW 9.2 mph - N/A   Clear
7:34 PM 55.4 °F - 33.8 °F 44% 29.81 in 10.0 mi WNW 8.1 mph - N/A   Clear
7:54 PM 53.6 °F - 33.8 °F 47% 29.80 in 10.0 mi WNW 6.9 mph - N/A   Clear
8:14 PM 51.8 °F - 33.8 °F 50% 29.80 in 10.0 mi WNW 5.8 mph - N/A   Clear
8:34 PM 48.2 °F - 32.0 °F 54% 29.79 in 10.0 mi NW 6.9 mph - N/A   Clear
8:54 PM 48.2 °F - 33.8 °F 58% 29.79 in 10.0 mi WNW 6.9 mph - N/A   Clear
9:14 PM 48.2 °F - 33.8 °F 58% 29.79 in 10.0 mi WNW 4.6 mph - N/A   Clear
9:34 PM 46.4 °F 45.2 °F 33.8 °F 62% 29.79 in 10.0 mi WNW 3.5 mph - N/A   Clear
9:54 PM 46.4 °F - 33.8 °F 62% 29.78 in 10.0 mi Calm Calm - N/A   Clear
10:14 PM 46.4 °F - 33.8 °F 62% 29.77 in 10.0 mi Calm Calm - N/A   Clear
10:34 PM 42.8 °F - 35.6 °F 76% 29.76 in 10.0 mi Calm Calm - N/A   Clear
10:54 PM 39.2 °F 37.0 °F 33.8 °F 81% 29.75 in 10.0 mi SSW 3.5 mph - N/A   Clear
11:14 PM 39.2 °F 37.0 °F 35.6 °F 87% 29.75 in 10.0 mi SSW 3.5 mph - N/A   Mostly Cloudy
11:34 PM 44.6 °F 41.4 °F 33.8 °F 66% 29.74 in 10.0 mi SW 5.8 mph - N/A   Overcast
11:54 PM 42.8 °F 41.1 °F 35.6 °F 76% 29.72 in 10.0 mi SSW 3.5 mph - N/A   Overcast